ASC 2 Rocket - Orbit

View from above orbital plane
View from above orbital plane
View from above satellite
View from above satellite

Ground track
Ground track

The orbit data is extracted from the following two-line orbital elements,

1 21228U 91028B   13140.82721759  .00000757  00000-0  28075-3 0    91
2 21228 023.9935 029.3367 1147365 103.8945 343.2390 12.52407623 10967
Epoch (UTC): 20 May 2013 19:51:11
Eccentricity: 0.1147365
inclination: 23.9935°
perigee height: 556 km
apogee height: 2353 km
right ascension of ascending node: 29.3367°
argument of perigee: 103.8945°
revolutions per day: 12.52407623
mean anomaly at epoch: 343.2390°
orbit number at epoch: 1096

The dashed part of the orbit path shows where the satellite is in the earth's shadow,  

Developed and maintained by Chris Peat, Heavens-Above GmbH. Please read the updated FAQ before sending e-mail. Imprint. DLR